Regional Weather Roundup
Issued by NWS Wakefield, VA

Home | Current Version | Previous Version | Graphics & Text | Print | Product List | Glossary On
Versions: 1 2 3 4 5 6 7 8 9 10 11 12 13 14 15 16 17 18 19 20 21 22 23 24 25 26 27
000
ASUS41 KAKQ 230815
RWRAKQ

REGIONAL WEATHER ROUNDUP
NATIONAL WEATHER SERVICE WAKEFIELD VA
400 AM EDT MON APR 23 2018

Note: "fair" indicates few or no clouds below 12,000 feet with no
significant weather and/or obstructions to visibility. * = Denotes
station may not report precipitation (e.g., rain,snow,etc.),
thunder or fog.

VAZ042-051-052>054-056-230900-
NORTHERN VIRGINIA

CITY           SKY/WX    TMP DP  RH WIND       PRES   REMARKS
WASH NATIONAL  MOCLDY    53  37  54 S3        30.41R
DULLES         FAIR      47  36  65 SE3       30.39S
FORT BELVOIR   FAIR      47  37  68 CALM      30.40R
QUANTICO       FAIR      52  42  69 CALM      30.40S
FREDERICKSBRG* FAIR      50  40  69 CALM      30.39R
STAFFORD*      FAIR      47  40  76 CALM      30.42S
WARRENTON      MOCLDY    42  37  80 CALM      30.38S
CULPEPER*      FAIR      42  37  85 CALM      30.39S
MANASSAS*      FAIR      42  39  89 CALM      30.40R
LEESBURG*      FAIR      52  37  58 SE7       30.40R
WINCHESTER     FAIR      45  34  65 CALM      30.38R
FRONT ROYAL*   FAIR      46  37  71 W3        30.34R
LURAY*         FAIR      43  39  87 CALM      30.35R
$$

VAZ048-049-060>072-079>083-230900-
CENTRAL AND SOUTH CENTRAL VIRGINIA

CITY           SKY/WX    TMP DP  RH WIND       PRES   REMARKS
RICHMOND       CLOUDY    49  41  74 SE5       30.37S
CHESTERFIELD*  PTSUNNY   46  38  73 CALM      30.37S
PETERSBURG*    FAIR      39  36  86 CALM      30.37F
HANOVER        CLOUDY    48  40  73 CALM      30.39R
TAPPAHANNOCK*  FAIR      45  42  88 CALM      30.39S
QUINTON*       CLOUDY    47  40  76 CALM      30.37S
CHARLOTTSVILLE FAIR      50  38  63 NE7       30.36S
GORDONSVILLE*  FAIR      42  40  93 CALM      30.38R
ORANGE*        FAIR      41  37  87 CALM      30.38S
LOUISA*        CLOUDY    41  38  89 NE3       30.42R
BUMPASS*       CLOUDY    45  38  78 W6        30.38R
FARMVILLE*     FAIR      47  40  75 N3        30.35R
CREWE*         FAIR      43  40  92 CALM      30.35S
FORT PICKETT*  FAIR      45  38  78 E5        30.36R
CHASE CITY*    FAIR      48  40  73 CALM      30.34S
CLARKSVILLE*   FAIR      50  43  76 E6        30.33S
SOUTH HILL*    FAIR      45  39  82 CALM      30.40S
LAWRENCEVILLE* FAIR      46  40  80 E3        30.35S
EMPORIA*       FAIR      45  41  87 CALM      30.37S
$$

VAZ088>098-230900-
SOUTHEAST VIRGINIA

CITY           SKY/WX    TMP DP  RH WIND       PRES   REMARKS
NORFOLK        CLOUDY    53  42  66 E5        30.37S
VIRGINIA BEACH CLOUDY    51  45  79 E6        30.38R
NORFOLK NAVAL  MOCLDY    51  40  65 E7        30.39R
WEST POINT*    FAIR      47  42  84 NE5       30.40R
SALUDA*        FAIR      51  45  79 E5        30.39R
NEWPORT NEWS   MOCLDY    43  40  89 E3        30.38S
LANGLEY AFB    FAIR      51  44  78 SE7       30.38R
FORT EUSTIS    CLOUDY    49  42  78 SE3       30.35S
WILLIAMSBURG*  FAIR      48  43  81 CALM      30.38S
HR EXEC AP*    FAIR      42  41  96 CALM      30.38S
FRANKLIN*      FAIR      43  40  89 CALM      30.37S
US460-WAKEFLD  FAIR      41  39  93 CALM      30.37S
$$

VAZ020-022-025-037-045-230900-
WEST CENTRAL AND SOUTHWEST VIRGINIA

CITY           SKY/WX    TMP DP  RH WIND       PRES   REMARKS
STAUNTON*      FAIR      46  37  71 CALM      30.36R
WAYNESBORO*    FAIR      48  37  65 CALM      30.34S
HOT SPRINGS VA CLOUDY    45  35  66 SE6       30.31R
LYNCHBURG      FAIR      46  39  76 CALM      30.33S
DANVILLE       FAIR      50  38  63 E5        30.31S
SOUTH BOSTON*  FAIR      49  37  61 NE3       30.33S
MARTINSVILLE   FAIR      54  41  61 E3        30.31S
ROANOKE        CLOUDY    55  40  56 E8        30.32S
BLACKSBURG     CLOUDY    53  45  74 SE9       30.30S
DUBLIN*        CLOUDY    52  43  71 E6        30.27S
MARION*        CLOUDY    55  48  79 E9G20     30.23F
HILLSVILLE*    CLOUDY    51  47  86 SE8       30.25S
RICHLANDS*     FAIR      55  12  18 SE13G33   30.15F
WISE*          CLOUDY    55  45  67 SE8       30.14S
ABINGDON*      DRIZZLE   58  47  66 SE7       30.16S
$$

MDZ021>025-VAZ099-100-230900-
SOUTHERN MARYLAND AND THE DELMARVA PENINSULA

CITY           SKY/WX    TMP DP  RH WIND       PRES   REMARKS
PATUXENT RIVER CLOUDY    52  45  77 SE3       30.39S
BAY BRIDGE APT CLOUDY    52  41  66 SE3       30.41R
LEONARDTOWN    CLOUDY    48  39  71 CALM      30.41S
DOVER          FAIR      46  35  66 SW5       30.41R
GEORGETOWN     FAIR      46  39  76 CALM      30.41S
EASTON         MOCLDY    51  40  66 CALM      30.44S
CAMBRIDGE      CLOUDY    46  41  81 SE3       30.41S
SALISBURY      MOCLDY    42  39  89 CALM      30.41R
TANGIER        CLOUDY    54  43  66 E6        30.39S
OCEAN CITY     FAIR      45  40  82 SE5       30.42R
WALLOPS ISLAND FAIR      50  44  80 CALM      30.41S
ACCOMACK*      CLOUDY    49  43  80 SE3       30.40R
$$

NCZ012>017-030>032-230900-
NORTH CENTRAL AND EASTERN NORTH CAROLINA

CITY           SKY/WX    TMP DP  RH WIND       PRES   REMARKS
ROANOKE RAPIDS FAIR      41  41 100 CALM      30.35S
RALEIGH        CLOUDY    53  45  74 E8        30.30F
ELIZABETH CITY FAIR      53  48  83 E7        30.37S
AHOSKIE*       FAIR      46  46  97 CALM      30.36S
EDENTON*       FAIR      53  50  90 NE6       30.37R
CURRITUCK*     NOT AVBL
KILL DEVIL HLS FAIR      53  48  86 E5        30.36R
MANTEO         FAIR      54  49  83 E6        30.37S
CAPE HATTERAS  FAIR      58  51  78 E7        30.34R
TARBORO*       NOT AVBL
GOLDSBORO      CLOUDY    54  49  86 E10       30.28F
WASHINGTON     FAIR      49  47  91 E6        30.34S
GREENVILLE     FAIR      50  46  87 E5        30.33S
NEW BERN       FAIR      55  53  93 E7        30.31F
WILMINGTON     FAIR      62  49  62 E8        30.26R
$$

VAZ048-230900-
ELSEWHERE

CITY           SKY/WX    TMP DP  RH WIND       PRES   REMARKS
HARRISBURG PA  FAIR      43  35  73 CALM      30.41R
BALTIMORE      MOCLDY    50  40  68 CALM      30.40S
ANNAPOLIS      MOCLDY    54  47  77 SE5       30.40S
ANDREWS AFB    MOCLDY    48  38  67 SE3       30.39S
PHILADELPHIA   FAIR      44  32  62 CALM      30.43R
HENDERSON NC   FAIR      46  38  73 E3        30.32F
GREENSBORO     CLOUDY    56  39  53 SE8       30.27S
ROCKY MOUNT    FAIR      50  45  83 NE5       30.32F
$$

VAZ100-230900-
MARINE

STATION/POSITION TIME  TEMP    WIND        PRES    WAVE   SWELL
                       AIR SEA DIR/SP/G            HT/PER HT/PER
                 (UTC) (F)     (DEG/KT/KT) (MB)    (FT/S) (FT/S)
BRANDYWINE LGT   0742   49     230/  5/  6 1030.2R
CAPE MAY NJ      0748   44 51   CALM  /  1 1029.6R
LEWES DE         0742   45 50   CALM  /  1 1029.7R
15NM E FENWICK I 0750   46 47  200/  4/  6 1030.2F   1/15   2/15
OCEAN-CITY-INLET 0742   49 50  200/  3/  4 1030.3R
WACHAPREAGUE VA  0742   52 56  140/  3/  4 1029.2F
GOOSES REEF MD   0800   52     120/  4/  4 1029.8
COVE POINT MD    0742   52     170/  7/  8 1030.0R
SOLOMONS ISLAND  0742   52 54  110/  5/  6 1029.0R
BISHOPS HEAD MD  0742   53 57  120/  5/  7 1029.8R
PINEY POINT MD   0742          140/  9/  9   N/A
POTOMAC MD       0800   53 53  130/  8/ 12 1030.3    1/ 2
CAMBRIDGE MD     0742   50 55              1030.4R
LEWISETTA VA     0742   53 55  140/  5/  7 1029.0S
RAPPAHANNOCK LGT 0742          110/ 10/ 12 1029.6F
STINGRAY PT      0800   53 54  150/  8/ 10 1029.5    1/ 2
YORK RVR RNG VA  0742   53     140/ 13/ 14 1029.1F
YORKTOWN VA      0742   52 56  150/  5/  6 1028.3F
DOMINION TERM VA 0742   54     100/  4/  7 1028.8S
KIPTOPEKE VA     0742      53  110/ 10/ 12   N/A
CAPE HENRY VA    0742   53     110/  7/ 10   N/A
WILLOUBY STN VA  0742   53     110/  8/  9 1028.6S
S CRANEY ISL VA  0742   53     120/  6/  7 1028.4S
CAPE HENRY BUOY  0800      51                N/A     2/15
1ST LANDING BUOY 0800   53 54  130/ 10/ 12 1028.7    1/ 3
64NM E OF VA BCH 0750   53 49   90/  8/ 10 1029.4R   2/ 8   2/ 8
DUCK PIER NC     0742   54 54   80/ 14/ 15 1027.9R
44100 DUCK FRF   0745      51                N/A     2/14
44056 DUCK FRF   0800      53                N/A     2/15   2/15
OREGON INLET NC  0742   53 59   50/  6/  9 1028.0R
HATTERAS NC      0742   61 62  100/  5/  8 1027.0R
DIAMOND SHLS NC  0800   66 72  120/ 12/ 16 1027.3
$$




USA.gov is the U.S. government's official web portal to all federal, state and local government web resources and services.